Weather History for Wenatchee, WA

Change the Weather History Date:

Friday, July 18, 2014

  Actual Average Record
Temperature  
Mean Temperature 71 °F 68 °F  
Max Temperature 83 °F 83 °F 106 °F (1960)
Min Temperature 58 °F 52 °F 47 °F (1996)
Degree Days  
Heating Degree Days 0 1  
Month to date heating degree days 0 41  
Since 1 June heating degree days 191 228  
Since 1 July heating degree days 0 41  
Cooling Degree Days 6 4  
Month to date cooling degree days 143 49  
Year to date cooling degree days 143 73  
Since 1 June cooling degree days 143 68  
Growing Degree Days 31 (Base 50)    
Moisture  
Dew Point 44 °F    
Average Humidity 28    
Maximum Humidity 40    
Minimum Humidity 19    
Precipitation  
Precipitation 0.00 in 0.01 in 0.28 in (1987)
Month to date precipitation 0.97 0.40  
Year to date precipitation 10.72 9.78  
Snow  
Snow 0.00 in 0.00 in - ()
Month to date snowfall 0.0 0.0  
Since 1 June snowfall 0.0 0.0  
Since 1 July snowfall 0.0 0.0  
Snow Depth 0.00 in    
Sea Level Pressure  
Sea Level Pressure 29.84 in    
Wind  
Wind Speed 17 mph (WNW)    
Max Wind Speed 26 mph    
Max Gust Speed 37 mph    
Visibility 9 miles    
Events      
T = Trace of Precipitation, MM = Missing Value Source: NWS Daily Summary

Daily Weather History Graph

Daily Weather History Graph

Search for Another Location

Airport:

Trip Planner

Search our weather history database for the weather conditions in past years. The results will help you decide how hot, cold, wet, or windy it might be!

Date:

Astronomy

Jul. 18, 2014 Rise Set
Actual Time 5:22 AM PDT 8:50 PM PDT
Civil Twilight 4:44 AM PDT 9:28 PM PDT
Nautical Twilight 3:54 AM PDT 10:19 PM PDT
Astronomical Twilight 2:47 AM PDT 11:25 PM PDT
Moon No Moon Rise 1:18 PM PDT (7/18)
Length of Visible Light 16h 44m
Length of Day
15h 28m
Waning Gibbous, 53% of the Moon is Illuminated
Jul 18
Waning Gibbous
Jul 18
Last Quarter
Jul 26
New
Aug 3
First Quarter
Aug 10
Full

Hourly Weather History & Observations

Time (PDT) Temp. Dew Point Humidity Pressure Visibility Wind Dir Wind Speed Gust Speed Precip Events Conditions
12:55 AM 75.9 °F 39.0 °F 26% 29.81 in 10.0 mi WNW 18.4 mph 25.3 mph N/A   Clear
1:55 AM 73.9 °F 39.9 °F 29% 29.82 in 10.0 mi Variable 5.8 mph - N/A   Clear
2:55 AM 73.0 °F 41.0 °F 31% 29.83 in 10.0 mi West 9.2 mph - N/A   Clear
3:55 AM 72.0 °F 42.1 °F 34% 29.83 in 10.0 mi WNW 16.1 mph - N/A   Clear
4:55 AM 71.1 °F 42.1 °F 35% 29.85 in 10.0 mi WNW 16.1 mph - N/A   Clear
5:55 AM 72.0 °F 42.1 °F 34% 29.86 in 10.0 mi WNW 11.5 mph - N/A   Clear
6:55 AM 73.0 °F 43.0 °F 34% 29.86 in 10.0 mi WNW 3.5 mph - N/A   Clear
7:55 AM 75.0 °F 43.0 °F 32% 29.86 in 10.0 mi Variable 4.6 mph - N/A   Clear
8:55 AM 79.0 °F 42.1 °F 27% 29.86 in 10.0 mi WNW 17.3 mph 24.2 mph N/A   Clear
9:55 AM 81.0 °F 41.0 °F 24% 29.85 in 10.0 mi WNW 20.7 mph - N/A   Clear
10:55 AM 84.0 °F 41.0 °F 22% 29.84 in 10.0 mi WNW 20.7 mph - N/A   Scattered Clouds
11:55 AM 84.9 °F 37.9 °F 19% 29.83 in 10.0 mi WNW 24.2 mph - N/A   Mostly Cloudy
12:55 PM 89.1 °F 42.1 °F 19% 29.82 in 7.0 mi WNW 26.5 mph 36.8 mph N/A   Partly Cloudy
1:55 PM 91.0 °F 43.0 °F 19% 29.82 in 6.0 mi NW 23.0 mph 31.1 mph N/A   Haze
2:55 PM 91.9 °F 44.1 °F 19% 29.81 in 5.0 mi WNW 26.5 mph 33.4 mph N/A   Haze
3:55 PM 91.0 °F 46.0 °F 21% 29.81 in 5.0 mi WNW 24.2 mph 31.1 mph N/A   Haze
4:55 PM 91.0 °F 46.0 °F 21% 29.81 in 6.0 mi NW 26.5 mph 33.4 mph N/A   Haze
5:55 PM 89.1 °F 46.9 °F 23% 29.83 in 5.0 mi NW 26.5 mph 33.4 mph N/A   Haze
6:55 PM 84.9 °F 48.0 °F 28% 29.83 in 5.0 mi NW 24.2 mph 32.2 mph N/A   Haze
7:55 PM 82.9 °F 48.0 °F 29% 29.85 in 10.0 mi WNW 20.7 mph 32.2 mph N/A   Clear
8:55 PM 80.1 °F 48.9 °F 34% 29.87 in 10.0 mi NNW 12.7 mph - N/A   Clear
9:55 PM 79.0 °F 48.0 °F 34% 29.85 in 10.0 mi WNW 21.9 mph 31.1 mph N/A   Clear
10:55 PM 78.1 °F 48.9 °F 36% 29.86 in 10.0 mi WNW 21.9 mph 32.2 mph N/A   Clear
11:55 PM 75.9 °F 50.0 °F 40% 29.86 in 10.0 mi WNW 20.7 mph - N/A   Clear